Flag for Canada Weather past 2 weeks in Oshawa, Ontario, Canada

Now
48 °F

Partly sunny.


Feels Like: 42 °F
Forecast: N/A
Wind: 15 mph from North

Location: Toronto Buttonville

Current Time: Apr 26, 2015 at 7:07:42 PM

Latest Report: Apr 26, 2015 at 6:00 PM


Visibility: 15 mi

Pressure: 29.83 "Hg

Humidity: 58%

Dew point: 34 °F

Location of OshawaLocation

Historic Weather in Oshawa — Graph

°F

Oshawa temperature yesterday

Maximum temperature yesterday: 50 °F (at 2:00 PM)
Minimum temperature yesterday: 27 °F (at 6:00 AM)
Average temperature yesterday: 40 °F

Past Weeks' High & Low Weather Summary

 TemperatureHumidityPressure
High73 °F (Apr 13, 4:00 PM)100% (Apr 14, 5:00 AM)30.42 "Hg (Apr 14, 5:00 AM)
Low27 °F (Apr 25, 6:00 AM)20% (Apr 14, 4:00 PM)29.38 "Hg (Apr 20, 6:00 PM)
Average46 °F61%29.97 "Hg
* Reported Apr 11 6:00 PM — Apr 26 6:00 PM, Oshawa, Weather by CustomWeather, © 2015

Note: Actual official high and low records may vary slightly from our data, if they occured in-between our weather recording intervals... More about our weather records

Advertising

Oshawa weather history for previous 24 hours

 ConditionsComfort  
Time TempWeatherWind HumidityBarometerVisibility
6:00 PM
Sun, Apr 26
48 °FPartly sunny.15 mph58%29.83 "Hg15 mi
5:00 PM50 °FPartly sunny.14 mph50%29.82 "Hg15 mi
4:00 PM52 °FPartly sunny.17 mph54%29.83 "Hg15 mi
3:00 PM50 °FPartly sunny.15 mph54%29.83 "Hg15 mi
2:00 PM52 °FPartly sunny.17 mph47%29.83 "Hg15 mi
1:00 PM52 °FPartly sunny.13 mph47%29.82 "Hg15 mi
12:00 PM50 °FPartly sunny.9 mph50%29.84 "Hg15 mi
11:00 AM46 °FPartly sunny.10 mph57%29.85 "Hg15 mi
10:00 AM45 °FPartly sunny.9 mph61%29.86 "Hg15 mi
9:00 AM43 °FScattered clouds.13 mph66%29.87 "Hg15 mi
8:00 AM41 °FScattered clouds.10 mph66%29.86 "Hg15 mi
7:00 AM39 °FPassing clouds.8 mph70%29.85 "Hg15 mi
6:00 AM37 °FPassing clouds.13 mph75%29.83 "Hg15 mi
5:00 AM39 °FPassing clouds.10 mph70%29.82 "Hg15 mi
4:00 AM37 °FPassing clouds.10 mph70%29.81 "Hg15 mi
3:00 AM37 °FPassing clouds.8 mph70%29.80 "Hg15 mi
2:00 AM37 °FPassing clouds.10 mph70%29.81 "Hg15 mi
1:00 AM39 °FPassing clouds.12 mph65%29.82 "Hg15 mi
12:00 AM39 °FPassing clouds.9 mph61%29.82 "Hg15 mi
11:00 PM
Sat, Apr 25
39 °FPassing clouds.7 mph61%29.83 "Hg15 mi
10:00 PM41 °FClear.7 mph57%29.84 "Hg15 mi
9:00 PM45 °FPassing clouds.10 mph49%29.84 "Hg15 mi
8:00 PM48 °FPassing clouds.10 mph43%29.82 "Hg15 mi
7:00 PM50 °FPassing clouds.9 mph40%29.81 "Hg15 mi
Weather by CustomWeather, © 2015

See weather overviewHow to use our weather pages